Regional Weather Roundup
Issued by NWS

Home | Current Version | Previous Version | Graphics & Text | Print | Product List | Glossary On
Versions: 1 2 3 4 5 6 7 8 9 10 11 12 13 14 15 16 17 18 19 20 21 22 23 24 25 26 27 28 29 30 31 32 33 34 35 36 37 38 39 40 41 42 43 44 45 46 47 48 49 50
000
ASUS43 KDMX 040607
RWRIA

WEATHER ROUNDUP FOR IOWA
NATIONAL WEATHER SERVICE DES MOINES IA
100 AM CDT FRI SEP 04 2015

NOTE: "FAIR" INDICATES FEW OR NO CLOUDS BELOW 12,000 FEET WITH NO
SIGNIFICANT WEATHER AND/OR OBSTRUCTIONS TO VISIBILITY.

* - THESE STATIONS ARE NOT NWS STATIONS...THUS NOT UNDER NWS
QUALITY CONTROL.  THEY ALSO DO NOT REPORT WEATHER SUCH
AS PRECIPITATION OR FOG.

IAZ001>003-012>014-020>022-031>034-043>046-040700-
   NORTHWEST IOWA

CITY           SKY/WX    TMP DP  RH WIND       PRES   REMARKS
CARROLL *      CLEAR     70  70 100 S6        29.88S
CHEROKEE *     MOCLDY    73  72  95 S7        29.85S
DENISON *      CLEAR     75  70  83 S13       29.86R
LE MARS *      CLEAR     75  72  88 S7        29.83S
ORANGE CITY *  CLEAR     75  72  88 S6        29.84S
SHELDON *      CLEAR     73  72  94 SE8G14    29.83S
SIOUX CITY     PTCLDY    76  69  79 SE10      29.82R
6HR MIN TEMP:  76; 6HR MAX TEMP:  85;

SPENCER        PTCLDY    74  70  87 SE7       29.87R FOG
6HR MIN TEMP:  74; 6HR MAX TEMP:  84;

STORM LAKE *   CLEAR     72  70  94 S8        29.88S
$$

IAZ055>058-069>071-079>083-090>094-040700-
   SOUTHWEST IOWA

CITY           SKY/WX    TMP DP  RH WIND       PRES   REMARKS
ATLANTIC *     CLEAR     75  70  83 S8        29.89S
AUDUBON *      CLEAR     73  70  88 S7        29.90S
CLARINDA *     CLEAR     72  70  94 S5        29.91S
COUNCIL BLFS *   N/A     73  70  88 S10       29.87S
CRESTON *      CLEAR     72  68  88 S9        29.93S
LAMONI         CLEAR     73  68  84 S7        29.93S
6HR MIN TEMP:  73; 6HR MAX TEMP:  84;

RED OAK *      CLEAR     73  70  88 S6        29.89S
SHENANDOAH *   CLEAR     75  70  83 S6G12     29.89R
$$

IAZ047>049-059>061-072>074-084-040700-
   CENTRAL IOWA

CITY           SKY/WX    TMP DP  RH WIND       PRES   REMARKS
AMES           PTCLDY    74  70  87 S8        29.92R
6HR MIN TEMP:  72; 6HR MAX TEMP:  82;

ANKENY *       CLEAR     73  72  94 CALM      29.92R
CHARITON *     CLEAR     72  68  88 S7        29.94R
DES MOINES     PTCLDY    78  68  71 SE7       29.92R HX  80
6HR MIN TEMP:  77; 6HR MAX TEMP:  86;

GRINNELL*      DRIZZLE   73  70  88 S7        29.94F
KNOXVILLE *    PTCLDY    73  68  83 S5        29.93R
MARSHALLTOWN   LGT RAIN  75  71  87 SW5       29.91S
6HR MIN TEMP:  74; 6HR MAX TEMP:  84; 6HR PCP:  0.03;

PELLA *        PTCLDY    74  71  92 SE3       29.95R
PERRY *          N/A     72  69  92 SE5       29.90R
$$

IAZ004>006-015-016-023>025-035-036-040700-
   NORTH CENTRAL IOWA

CITY           SKY/WX    TMP DP  RH WIND       PRES   REMARKS
ALGONA *       CLEAR     75  72  88 SE10      29.89S
CLARION *      PTCLDY    75  70  83 S10       29.91R
ESTHERVILLE    PTCLDY    71  70  96 SE6       29.88S
6HR MIN TEMP:  71; 6HR MAX TEMP:  83;

FORT DODGE *   CLEAR     75  68  78 SE7       29.91R
MASON CITY     MOCLDY    72  71  97 SE6       29.93R
6HR MIN TEMP:  71; 6HR MAX TEMP:  82;

FOREST CITY *  MOCLDY    72  72 100 CALM      29.91S
IOWA FALLS *   MOCLDY    75  72  88 SE7       29.94R
$$

IAZ007>011-017>019-026>030-037>042-050>054-066-040700-
   NORTHEAST IOWA

CITY           SKY/WX    TMP DP  RH WIND       PRES   REMARKS
CEDAR RAPIDS   PTCLDY    72  72 100 W5        29.94R
6HR MIN TEMP:  72; 6HR MAX TEMP:  85;

CHARLES CITY * PTCLDY    73  73 100 SE5       29.94R
CLINTON *      CLEAR     72  68  88 CALM      29.96R
DECORAH *      PTCLDY    75  73  94 VRB5      29.94S
DUBUQUE        CLEAR     73  71  93 CALM      29.96R
6HR MIN TEMP:  73; 6HR MAX TEMP:  83;

MONTICELLO *   CLEAR     70  70 100 CALM      29.93S
OELWEIN *        N/A     72  72 100 SE5       29.94S
WATERLOO       MOCLDY    77  68  73 S3        29.92R
6HR MIN TEMP:  75; 6HR MAX TEMP:  86;

$$

IAZ064-065-067-068-078-040700-
   EAST CENTRAL IOWA

CITY           SKY/WX    TMP DP  RH WIND       PRES   REMARKS
DAVENPORT      CLEAR     71  69  93 S3        29.94R
6HR MIN TEMP:  71; 6HR MAX TEMP:  84;

IOWA CITY      PTCLDY    73  71  93 CALM      29.94R
6HR MIN TEMP:  72; 6HR MAX TEMP:  87;

MT. PLEASANT * CLEAR     73  68  84 SW3       29.95R
MUSCATINE *    CLEAR     72  70  94 CALM      29.93S
QUAD CITIES    CLEAR     75  69  81 CALM      29.93R
6HR MIN TEMP:  75; 6HR MAX TEMP:  88;

$$

IAZ062-063-075>077-085>089-095>099-040700-
   SOUTHEAST IOWA

CITY           SKY/WX    TMP DP  RH WIND       PRES   REMARKS
BURLINGTON     CLEAR     73  70  90 S3        29.94R
6HR MIN TEMP:  73; 6HR MAX TEMP:  87;

FAIRFIELD *    PTCLDY    75  68  78 S6        29.94R
FORT MADISON * CLEAR     72  70  94 S5        29.95S
KEOKUK *       CLEAR     73  70  88 S3        29.94R
OSKALOOSA *    MOCLDY    71  68  89 S3        29.94S
CENTERVILLE *  CLEAR     68  68 100 SE5       29.96R
OTTUMWA        PTCLDY    73  69  87 S7        29.93R
6HR MIN TEMP:  73; 6HR MAX TEMP:  83;

WASHINGTON *     N/A    N/A N/A N/A MISG        N/A
$$

ABBREVIATIONS USED IN REMARKS
   TC - TEMPERATURES IN CELSIUS
  WCI - WIND CHILL INDEX
   HX - HEAT INDEX
  VSB - VISIBILITY
$$




USA.gov is the U.S. government's official web portal to all federal, state and local government web resources and services.